Location: Brantley
(31.5822°N, 86.2569°W)
Time: 17:05:07
(UTC+00:00)

Transit 2A Rocket - Pass Details

Date: 22 February 2026
Orbit: 583 x 900 km, 66.7° (Epoch: 12 March)

Event Time Altitude Azimuth Distance (km) Brightness Sun altitude
Rises 18:54:16 0° 168° (SSE) 3,422 8.9 46.3°
Reaches altitude 10° 18:57:14 10° 153° (SSE) 2,523 8.3 46.1°
Maximum altitude 19:01:37 22° 105° (ESE) 1,853 7.2 45.8°
Drops below altitude 10° 19:06:05 10° 57° (ENE) 2,575 7.5 45.4°
Sets 19:09:08 0° 43° (NE) 3,511 8.0 45.1°
